CAPE
2114 2000 2000 2160 2192 2192 2431 2436 2413 2258 2299 2199 1753 1224 1132 1254 1094 1126 1111 1160 1168 1122 1291 1019 926 968 1016 1146 1317 1511 1488 996 1139 1152 1067 1321 1872 2317 2358 2228 1662 1732 1814 1784 1894 1850 1780 1718 1733 1728 1578 1565 1631 1734 1734 1709 1703 1626 1701 1757 1722 1744 1683 1750 1489 1388 1436 1385 1422 1262 1214 1313 1066 1139 1229 1354 1412 1372 1311 1300 1313 1336 1489 1490 1430
2275 2234 2173 2187 2304 2307 2363 2467 2433 2221 1821 1363 1670 1145 966 953 822 878 1006 1066 957 1183 1028 801 977 979 976 481 1060 1271 1369 871 1057 1086 1005 1411 1934 2316 2470 2312 2116 1668 1905 1734 1928 1924 1764 1751 1790 1758 1742 1536 1595 1597 1600 1595 1731 1679 1711 1724 1720 1737 1717 1667 1311 1323 1328 1376 1271 1158 1175 1090 1200 1426 1346 1483 1494 1432 1379 1450 1448 1456 1437 1488 1488
2265 2396 2414 2321 2358 2302 2185 2100 1940 1816 1951 1563 1822 1306 1009 938 892 1000 843 807 1143 1071 968 676 797 739 1050 177 819 1098 1156 826 967 1002 1020 1417 1857 2099 2155 2341 2183 1840 1706 1779 1806 1897 1919 1796 1845 1783 1690 1621 1599 1527 1554 1586 1619 1612 1602 1625 1641 1658 1613 1537 1470 1366 1407 1315 1304 1235 1198 1179 1236 1305 1349 1441 1316 1405 1468 1462 1426 1518 1469 1420 1401
2025 2233 2356 2171 2208 2242 1674 1667 1869 1850 2118 1758 1827 1562 1124 1042 1185 994 1100 1362 1241 749 688 733 674 641 735 32 437 858 925 820 915 932 1000 1355 1756 1935 2183 2263 2302 2078 1894 1745 1837 1917 1981 1611 1738 1801 1710 1706 1531 1536 1482 1482 1558 1547 1531 1584 1591 1606 1604 1616 1606 1563 1512 1507 1382 1353 1461 1436 1298 1285 1276 1309 1375 1414 1443 1475 1559 1659 1715 1702 1672
1935 1853 2508 1698 1912 1923 1735 1896 1978 2153 2133 1874 1815 1266 1520 1480 1183 1889 1118 967 810 673 1030 782 805 831 791 5 114 678 723 801 875 866 946 1306 1635 1876 2122 2375 2138 2192 2042 1875 1888 1898 1954 1921 1880 1857 1788 1803 1744 1760 1558 1542 1515 1550 1524 1586 1611 1583 1678 1670 1738 1762 1617 1554 1571 1603 1666 1641 1546 1569 1566 1557 1544 1592 1575 1624 1755 1712 1562 1487 1588
1869 1809 2002 1628 1672 1668 1552 1688 1938 2190 2153 1791 1645 1440 1209 1001 999 1172 1813 1923 943 901 878 760 163 97 3 4 212 664 761 811 829 778 896 1232 1552 1826 2023 2118 2043 1969 2035 2037 1944 1888 2015 1921 1890 1911 1923 1857 1831 1823 1782 1844 1816 1766 1710 1636 1639 1662 1710 1739 1725 1692 1689 1639 1589 1594 1611 1593 1509 1475 1517 1639 1582 1402 1412 1241 1360 1590 1575 1261 1373
1847 1757 1922 1633 1601 1456 1467 1569 1888 2102 2156 1810 1873 1808 1505 1152 1228 1027 945 1233 1336 1038 1503 1313 128 13 0 106 336 717 785 827 780 624 866 1171 1472 1748 1896 2004 1971 1898 2020 1990 2007 2072 2102 1953 1888 1904 1959 1985 1968 1876 1803 1848 1834 1692 1722 1741 1686 1602 1617 1595 1581 1558 1566 1570 1550 1531 1448 1450 1450 1440 1567 1259 1374 1405 1404 1141 1250 1382 1184 1342 1312
1745 1755 1751 1585 1457 1497 1396 1367 1742 2332 2214 2037 2201 2102 1862 1368 1376 1333 1068 1010 1674 1599 1188 320 167 1 1 68 558 738 782 757 627 660 848 1143 1422 1666 1828 1924 1921 1847 2163 1956 1951 2058 2116 1934 1929 1945 1993 1986 1989 1943 1712 1726 1865 1849 1711 1696 1646 1614 1621 1570 1628 1558 1558 1438 1462 1435 1383 1501 1546 1250 1281 1220 1328 1247 1397 1328 1269 1282 1116 1234 1375
1631 1692 1586 1455 1500 1650 1627 1549 2055 2415 2639 2392 2191 2019 1928 1452 1560 1914 1370 1306 1640 1489 602 35 0 0 0 61 302 556 586 578 595 662 891 1030 1370 1620 1762 1891 1900 2326 2052 1901 1896 1857 2044 2165 1946 2016 2056 2010 1946 2005 1952 1792 1790 1367 1288 889 1247 970 1183 1257 1233 1400 1279 1580 1375 1440 1285 1296 1348 1327 1285 1168 1213 1256 1316 1234 1336 1305 1334 1366 1381
1487 1511 1497 1462 1542 1732 1905 1958 2254 2141 2241 2278 2390 2260 1767 2031 2155 2687 1960 1535 1336 1127 727 24 0 0 0 77 122 148 105 215 629 1308 793 919 1154 1427 1631 1828 1897 1958 2128 1950 1831 1788 1760 1920 1998 1968 2074 1985 2080 2010 1958 1854 1475 1406 1178 1213 1166 1081 1084 1220 1307 1518 1463 1234 1336 1194 1151 1535 1343 1190 1157 1180 1162 1077 1270 1326 1357 1374 1418 1403 1423
1176 1505 1539 1884 1794 1824 2011 2155 2262 2095 2320 2368 2539 2217 2203 2327 1961 1899 2107 1561 1397 752 3 2 0 0 0 14 10 0 0 70 1121 868 645 794 892 1180 1323 1612 1840 1844 2034 2009 1775 1687 1689 1604 1704 1734 1739 1981 2089 2101 1763 1542 1514 1506 1328 1320 1423 1400 1418 1502 1566 1430 1103 1097 1196 1120 1029 1037 1094 978 1075 1262 1226 1223 1266 1344 1409 1419 1414 1372 1387
1482 1566 1594 1892 1893 1891 1992 2222 2235 2008 2505 2418 2247 2056 1936 1911 1717 1347 1222 2062 1484 784 0 2 0 0 142 0 0 0 0 516 555 662 548 652 988 1362 1074 1328 1629 1746 1912 1967 1742 1602 1622 1562 1738 1598 1685 1776 2007 2050 1855 1844 1378 1644 1708 1525 1608 1528 1617 1500 1263 1120 1121 1216 1277 1116 1310 1206 1150 1124 1044 1222 1063 1085 1247 1229 1212 1257 1326 1324 1452
1819 1698 1638 2394 2015 1930 1999 2154 2208 1936 2375 2340 2151 1903 1929 1731 1919 2532 1211 1171 1088 770 0 0 0 0 0 0 0 41 479 703 288 421 414 562 702 1286 1015 1211 1420 1539 1726 1736 1536 1456 1530 1546 1482 1522 1579 1635 1706 1888 2020 1860 1689 1508 1657 1689 1374 1441 1424 1294 1295 1268 1397 1405 1195 1225 1220 1210 1211 1086 1180 1084 1110 1103 1094 1106 1135 1211 1340 1480 1301
2038 1848 1786 2056 2088 1980 1973 1956 2123 1989 2210 2450 2333 2271 2946 2276 1894 1666 2159 1371 1045 1026 0 0 0 0 0 0 0 14 713 593 22 38 292 422 554 880 987 1080 1240 1357 1456 1475 1238 1253 1323 1368 1381 1433 1505 1562 1588 1584 1675 1761 1754 1864 1799 1516 1522 1500 1542 1596 1486 1298 1333 1384 1361 1259 1251 1264 1198 1276 1252 1188 1100 1081 1109 1020 1132 1293 1064 948 719
1984 1926 1870 1924 2002 1960 1976 1812 1682 2022 2371 2331 2458 2100 2452 2324 1990 1611 1723 1797 1930 1494 0 0 0 0 0 0 0 0 38 118 111 116 226 311 392 666 778 942 1087 1234 1286 1202 1180 1189 1190 1257 1314 1339 1389 1429 1468 1518 1552 1906 1808 1895 1798 1631 1490 1516 1524 1539 1448 1478 1654 1571 1446 1427 1390 1358 1222 1265 1164 1043 1025 1147 1249 1250 1166 818 549 398 308
1646 1885 1856 1918 1947 1913 1812 1620 1534 1826 2200 2199 2198 2068 2022 2169 2087 1618 1456 1403 1191 1210 594 0 0 0 0 0 0 0 0 0 0 0 12 199 320 546 611 728 831 953 1051 1024 1042 1157 1147 1056 1167 1238 1292 1311 1357 1470 1528 1544 1696 1942 1677 1386 1568 1321 1432 1550 1361 1394 1591 1494 1151 1343 1326 1276 1193 1222 1167 1026 1181 1152 1039 898 547 338 95 205 186
1432 1781 1769 1801 1844 1765 1658 1548 1491 1693 2152 2106 2110 2036 1958 1860 2170 1813 1684 1192 904 904 797 0 0 0 0 0 0 0 0 0 0 0 0 2 178 404 481 517 560 682 835 938 975 1023 1025 898 939 1024 1100 1188 1267 1369 1458 1486 1562 1786 1878 1659 1469 1501 1406 1471 1282 1289 1323 1333 1314 1267 1167 1206 1100 1196 971 910 950 912 742 540 509 251 140 124 157
1518 1577 1791 1709 1829 1726 1660 1604 1533 1670 2058 2038 1996 1973 1883 1901 2017 2082 1842 1507 970 410 233 1074 28 185 2 0 0 0 0 0 0 1 0 79 0 90 324 338 404 537 701 820 861 940 986 958 875 856 918 1127 1256 1384 1436 1384 1330 1255 1228 1285 1447 1680 1440 1382 1316 1095 813 1228 1219 1169 1135 1097 966 914 899 830 806 763 413 381 284 214 66 68 75
1568 1476 1703 1771 1836 1805 1716 1667 1632 1796 2048 1974 1950 1939 1849 1802 1912 2072 1896 1668 1312 687 193 11 0 47 197 32 52 243 0 0 0 0 0 0 0 0 0 98 227 46 259 638 718 850 980 995 1019 895 950 1130 1306 1422 1224 1121 1302 1491 1593 1726 1523 1610 1515 1490 1309 1300 932 977 1037 1117 1113 1100 963 864 887 744 479 146 182 249 132 130 90 90 127
1571 1520 1504 1743 1822 1908 1840 1772 1713 1886 2173 2018 1923 1954 2003 1973 1928 2048 2047 1865 1729 1200 926 145 0 0 111 16 810 297 0 0 0 0 0 0 0 0 0 0 0 0 20 272 464 707 879 989 1034 958 1001 1151 1281 1196 930 897 924 1164 1565 1587 1552 1459 1477 1282 1203 858 887 1096 1160 1201 1208 1146 1017 692 838 616 214 176 121 86 189 147 170 252 240
1589 1577 1518 1622 1922 1915 1924 1889 1857 1985 2433 2259 2099 2054 2104 2106 2140 2188 2172 2148 2038 1660 1122 958 138 0 0 0 10 1 0 1 0 0 0 0 0 0 0 0 0 0 0 4 39 89 726 860 877 925 922 1048 1095 936 842 882 932 1071 1276 1502 1414 1482 1399 1123 740 662 802 872 993 929 766 642 667 475 345 9 10 185 296 278 267 334 475 532 608
1607 1626 1594 1602 1758 1959 1958 1963 1956 2009 2449 2359 2295 2253 2241 2192 2142 2161 2203 2259 2209 2042 1582 1166 363 0 0 0 0 0 0 0 0 0 0 0 0 0 0 0 0 0 0 0 0 2 440 689 608 848 900 897 881 804 820 871 873 920 1012 1343 1403 1535 1393 1171 927 675 549 428 430 410 438 328 347 253 84 5 0 133 369 566 677 709 663 649 650
1597 1616 1669 1646 1687 1918 2068 2028 2010 2179 2490 2485 2450 2425 2390 2346 2275 2198 2168 2158 2188 2133 1950 1538 1198 720 0 0 0 0 0 0 0 0 0 0 0 0 0 0 0 0 0 0 0 0 0 100 5 263 756 762 754 708 713 749 802 739 902 1238 1634 1635 1437 1238 1053 854 591 386 168 161 115 110 103 65 38 88 185 444 762 892 803 620 574 666 695
1592 1605 1652 1681 1671 1809 2139 2209 2207 2178 2324 2492 2536 2546 2563 2528 2428 2337 2242 2097 2051 2044 1999 1685 1227 1082 648 0 0 0 0 0 0 0 0 0 0 0 0 0 0 0 0 0 0 0 0 0 0 30 198 441 570 553 558 608 606 811 1076 1162 1572 1585 1485 1314 1161 962 844 645 299 220 191 199 220 232 273 442 708 822 760 617 560 595 737 930 866
1551 1577 1618 1657 1685 1716 1967 2236 2348 2376 2360 2501 2602 2605 2580 2557 2488 2414 2347 2099 1794 1830 1908 1648 1267 1055 957 572 0 0 0 0 0 0 0 0 0 0 0 0 0 0 0 0 0 0 0 0 0 0 22 47 69 107 407 444 450 504 1176 936 1396 1438 1367 1319 1089 789 653 626 531 309 390 520 631 698 711 731 779 993 1086 1016 1040 1032 739 398 402
1450 1499 1543 1622 1664 1687 1846 2085 2248 2390 2473 2515 2593 2648 2653 2579 2486 2404 2358 2255 1982 1990 1952 1648 1272 1072 972 789 0 0 0 0 0 0 0 0 0 0 0 4 0 0 0 0 0 0 0 0 0 0 0 1 14 17 23 44 50 392 930 950 867 1240 1134 1150 1087 788 546 502 548 453 334 433 752 904 708 591 727 846 855 776 582 492 346 536 743
1344 1403 1452 1560 1631 1675 1796 2012 2176 2295 2430 2503 2545 2610 2633 2613 2513 2460 2438 2390 2288 2174 2203 2038 1450 1094 1064 907 0 0 0 0 0 0 0 0 0 0 0 0 0 0 0 0 0 0 0 0 0 0 0 0 0 0 0 0 61 247 701 1191 264 611 850 886 914 805 535 383 422 461 388 355 420 534 559 636 609 637 691 486 587 766 903 776 686
1216 1318 1381 1483 1576 1649 1772 1965 2101 2234 2353 2448 2494 2531 2580 2596 2563 2545 2543 2486 2435 2350 2330 2228 1732 1322 1122 1070 934 376 0 0 0 0 0 0 0 0 0 0 0 0 0 0 0 0 0 0 0 0 0 0 0 0 40 85 0 224 613 690 82 3 357 627 644 667 531 236 172 248 295 284 261 244 269 369 602 437 475 649 978 905 743 660 696
1084 1249 1342 1393 1508 1582 1689 1884 2036 2140 2256 2391 2448 2466 2504 2540 2567 2590 2590 2547 2432 2386 2432 2342 2098 1818 1499 1240 1139 980 523 0 0 0 0 0 0 0 0 0 0 0 0 0 0 0 0 0 0 0 0 0 0 0 7 6 15 127 44 257 28 0 0 228 359 330 301 113 2 0 14 78 113 108 141 214 447 736 737 726 888 846 754 755 692
889 1195 1317 1374 1436 1776 1599 1764 1976 2097 2158 2260 2379 2431 2424 2442 2487 2542 2603 2596 2446 2400 2423 2426 2280 2066 2025 1721 1330 1216 927 523 0 0 0 0 0 0 0 0 0 0 0 0 0 0 0 0 0 0 0 0 0 0 0 0 119 322 36 76 73 0 0 1 48 68 48 10 0 0 0 0 9 36 71 175 307 458 599 591 701 660 658 640 516
901 1110 1310 1373 1424 1499 1578 1643 1864 2070 2152 2176 2249 2357 2395 2381 2391 2463 2532 2600 2528 2383 2398 2393 2338 2165 2144 2050 1720 1443 1266 857 344 5 13 1 0 0 0 0 0 0 0 0 0 0 0 3 0 0 0 0 0 0 0 0 121 361 183 112 238 73 14 0 0 3 1 0 0 0 0 0 0 0 17 60 152 268 334 398 420 482 524 509 269
965 1086 1272 1362 1427 1456 1539 1594 1687 1908 2090 2166 2191 2235 2325 2360 2343 2370 2433 2507 2561 2487 2378 2358 2362 2301 2235 2123 1979 1745 1505 1247 865 575 383 166 3 0 0 0 0 0 0 0 0 10 0 0 0 0 0 0 0 0 0 4 76 582 265 174 273 475 219 0 0 0 0 0 0 0 0 0 0 0 0 24 84 129 185 284 269 423 306 196 143
1149 1190 1271 1378 1462 1477 1512 1579 1614 1721 1898 2054 2163 2208 2230 2281 2341 2358 2399 2421 2455 2496 2452 2386 2386 2403 2360 2228 2059 1938 1815 1552 1180 926 668 474 387 144 4 0 106 409 152 0 0 0 0 0 0 0 0 0 0 0 0 1 15 104 384 230 248 310 186 30 0 0 0 0 0 0 0 0 0 0 0 1 30 78 127 171 198 189 89 35 77
1308 1372 1366 1413 1470 1522 1535 1558 1609 1650 1733 1842 1997 2164 2219 2229 2270 2325 2387 2436 2460 2483 2504 2470 2453 2462 2446 2357 2196 2056 1913 1838 1585 1156 984 787 526 408 409 407 403 419 443 46 0 0 0 0 5 1 3 0 4 0 2 0 2 50 75 188 238 210 181 62 10 3 4 0 0 0 0 0 0 0 0 0 7 36 56 74 88 36 2 19 33
1105 1452 1534 1534 1548 1571 1577 1569 1596 1642 1691 1740 1809 1952 2107 2194 2236 2272 2332 2403 2453 2475 2469 2446 2441 2444 2439 2406 2327 2186 2046 1914 1850 1592 1242 1087 957 676 510 466 444 438 464 465 207 0 0 0 0 17 27 0 9 3 0 0 25 11 37 101 223 202 165 70 14 2 20 23 6 0 0 0 0 0 0 0 0 6 11 14 5 0 0 0 3
1169 1205 1515 1649 1699 1708 1686 1654 1625 1644 1686 1740 1791 1844 1949 2071 2152 2196 2264 2346 2405 2422 2414 2366 2331 2332 2326 2316 2318 2258 2124 2023 1925 1875 1631 1284 1146 1040 947 895 738 506 466 462 469 361 0 0 0 1 3 0 0 0 0 0 0 0 10 49 115 142 112 110 56 26 33 16 5 0 0 0 0 0 0 0 0 0 0 0 0 0 0 0 0
1347 1259 1283 1564 1748 1829 1843 1791 1741 1704 1700 1750 1820 1880 1934 2008 2082 2127 2169 2229 2298 2352 2358 2334 2294 2231 2186 2162 2163 2177 2164 2086 2008 1951 1912 1646 1333 1159 1165 1172 1121 892 206 312 455 0 0 0 0 0 5 0 0 0 0 0 0 0 0 6 8 22 26 32 66 72 67 14 0 0 0 0 0 0 0 0 0 0 0 0 0 0 0 0 0
1548 1508 1404 1411 1612 1793 1892 1931 1889 1826 1772 1760 1818 1894 1954 2004 2050 2096 2122 2132 2158 2203 2244 2267 2262 2242 2204 2150 2117 2117 2122 2099 2028 1954 1909 1871 1654 1320 1161 1152 1130 1044 826 440 1 0 0 0 0 4 0 357 398 414 79 0 0 0 0 0 0 0 0 0 4 41 61 30 5 1 1 0 0 0 0 0 0 0 0 0 0 0 0 0 0
1507 1667 1723 1646 1600 1659 1752 1845 1904 1923 1897 1864 1843 1857 1909 1963 2013 2063 2093 2106 2114 2102 2122 2162 2181 2194 2192 2179 2152 2126 2110 2088 2039 1944 1853 1792 1740 1613 1320 1080 1081 1112 1062 928 461 26 24 295 408 381 392 404 410 451 422 372 223 0 0 0 0 0 0 0 0 2 21 20 5 4 5 7 3 0 0 0 0 0 0 0 0 0 0 0 0
1398 1484 1714 1866 1883 1800 1772 1776 1787 1770 1773 1793 1823 1847 1862 1898 1944 1998 2042 2075 2078 2077 2063 2067 2103 2143 2175 2189 2180 2161 2126 2091 2055 1984 1881 1783 1674 1614 1506 1320 1113 1010 999 1018 901 657 76 160 451 479 453 443 428 425 409 388 342 80 0 0 1 0 0 0 0 0 0 8 20 8 5 1 0 0 0 0 0 0 0 0 0 0 0 0 0
1406 1375 1394 1588 1862 2002 1986 1917 1890 1898 1887 1832 1796 1814 1849 1890 1921 1971 2012 2048 2073 2085 2081 2076 2088 2118 2160 2195 2212 2216 2198 2169 2130 2073 1977 1825 1696 1590 1508 1402 1315 1216 1103 943 902 872 680 413 339 454 502 502 474 433 410 391 377 98 8 0 6 6 0 0 0 0 0 0 5 15 26 8 3 1 0 0 0 0 0 0 0 0 0 0 0
1499 1450 1380 1341 1382 1592 1847 1984 2004 1985 1999 2030 2000 1930 1910 1936 1986 2028 2058 2078 2103 2116 2125 2130 2151 2168 2175 2183 2190 2209 2234 2234 2228 2206 2152 2065 1935 1770 1614 1472 1384 1286 1205 1138 1053 949 825 663 511 341 407 447 449 430 403 372 21 3 2 0 4 27 0 0 0 1 0 0 0 0 32 34 9 9 1 0 0 10 0 0 0 0 0 0 0
1562 1528 1478 1422 1353 1303 1331 1502 1721 1848 1886 1917 2023 2088 2091 2068 2052 2087 2122 2156 2166 2181 2204 2236 2244 2244 2244 2235 2236 2234 2254 2261 2274 2261 2244 2197 2120 2041 1945 1841 1697 1544 1383 1261 1199 1158 1079 995 900 808 724 654 575 492 441 390 337 292 32 4 0 0 1 9 40 66 162 1 0 0 11 160 17 11 169 125 0 0 0 0 0 0 0 0 0
1616 1566 1547 1495 1444 1380 1310 1285 1366 1530 1680 1739 1798 1928 2080 2145 2160 2126 2142 2194 2220 2240 2273 2322 2349 2340 2328 2314 2309 2313 2315 2308 2298 2299 2276 2261 2231 2184 2126 2053 1958 1858 1749 1625 1496 1403 1298 1212 1137 1049 998 934 851 762 716 649 601 551 514 456 399 330 146 0 6 30 10 20 8 0 1 18 152 7 98 162 5 0 0 0 0 0 0 0 0
1655 1652 1614 1556 1508 1448 1382 1333 1302 1351 1498 1611 1735 1802 1880 2011 2123 2170 2121 2136 2211 2264 2298 2341 2384 2406 2415 2428 2431 2429 2413 2410 2405 2389 2348 2313 2279 2267 2266 2236 2194 2114 2055 2011 1922 1790 1665 1567 1460 1394 1314 1276 1206 1114 973 908 850 792 760 713 648 580 531 449 388 281 21 18 13 1 2 14 10 42 8 23 9 0 0 0 0 0 0 0 0
1709 1687 1663 1641 1602 1557 1496 1424 1369 1353 1411 1523 1680 1799 1860 1890 1968 2088 2138 2087 2089 2175 2259 2307 2355 2394 2432 2461 2482 2494 2491 2474 2465 2462 2446 2420 2393 2359 2339 2320 2288 2259 2242 2247 2175 2087 2028 1914 1782 1698 1604 1486 1406 1293 1200 1093 1041 1012 946 904 832 781 738 716 675 664 582 429 154 22 6 15 0 8 17 37 8 0 0 0 0 0 0 0 0
1804 1759 1724 1715 1695 1662 1612 1556 1511 1468 1465 1508 1632 1753 1847 1908 1946 1974 2072 2128 2132 2135 2183 2252 2309 2347 2392 2431 2471 2491 2505 2506 2499 2501 2478 2463 2436 2414 2398 2379 2346 2302 2279 2260 2228 2178 2140 2078 1946 1875 1772 1698 1614 1596 1520 1433 1391 1327 1262 1236 1230 1205 1189 1156 1080 927 819 684 525 237 79 25 0 2 27 42 8 0 0 0 0 0 0 0 0
2264 2046 1845 1771 1735 1702 1685 1674 1651 1607 1564 1582 1666 1764 1853 1934 1985 2008 2026 2062 2108 2141 2166 2203 2254 2309 2362 2415 2469 2506 2531 2542 2551 2558 2557 2540 2522 2492 2488 2471 2445 2427 2395 2371 2356 2383 2419 2422 2388 2308 2266 2211 2151 2090 2046 1947 1872 1802 1740 1683 1636 1572 1554 1446 1418 1390 1325 1211 955 630 451 325 142 13 28 36 3 0 0 0 0 0 0 0 0
2750 2516 2284 2052 1872 1769 1714 1706 1716 1701 1679 1688 1711 1773 1893 1998 2066 2113 2126 2126 2129 2124 2134 2163 2210 2279 2357 2407 2441 2460 2480 2501 2536 2561 2585 2598 2598 2580 2573 2574 2554 2546 2607 2647 2674 2685 2704 2710 2688 2680 2621 2536 2416 2332 2294 2242 2164 2103 2048 1912 1842 1827 1719 1593 1509 1433 1399 1350 1282 1022 762 643 553 342 20 3 0 0 0 0 0 0 0 0 0
3047 2887 2690 2474 2222 1965 1805 1722 1689 1722 1742 1757 1782 1800 1837 1957 2062 2125 2168 2205 2222 2235 2240 2243 2262 2298 2349 2410 2462 2476 2481 2492 2523 2537 2586 2626 2649 2640 2566 2648 2754 2851 2902 2902 2905 2942 2936 2890 2893 2844 2814 2756 2696 2590 2507 2485 2446 2372 2273 2087 2104 2039 1874 1838 1864 1662 1379 1198 1340 1136 819 817 798 636 279 0 0 0 0 0 0 0 0 0 0
3283 3176 3032 2857 2633 2372 2104 1863 1728 1728 1768 1806 1844 1878 1895 1929 1997 2074 2113 2155 2179 2219 2262 2297 2340 2373 2422 2453 2480 2514 2546 2575 2588 2600 2602 2608 2689 2756 2820 2915 3070 3134 3093 3004 3028 3072 3102 3087 3059 2990 2990 2946 2848 2743 2648 2617 2638 2597 2462 2366 2336 2287 2192 2178 2179 1923 1552 1680 1654 1124 788 807 820 628 752 291 69 0 0 0 0 0 0 0 0
Wind_Speed
11 11 10 11 10 9 10 11 9 9 9 9 8 8 7 7 7 6 5 5 4 6 8 8 10 13 14 14 13 13 11 11 11 12 12 12 12 17 19 19 20 19 17 16 15 15 15 14 13 12 12 12 11 10 10 9 9 9 9 10 9 10 10 10 11 10 11 11 11 11 11 11 11 11 11 11 12 12 12 12 12 12 12 12 11
11 11 10 10 10 10 11 11 11 9 9 10 9 8 9 8 9 7 6 5 2 5 7 8 9 12 13 12 13 13 11 12 11 11 12 11 12 15 20 18 20 18 18 17 16 16 15 15 14 13 13 13 13 12 11 11 10 10 10 11 11 11 12 12 12 12 12 12 12 12 12 11 11 11 12 12 12 13 13 13 13 13 12 12 12
11 10 10 10 9 10 11 11 10 11 9 9 8 8 8 9 9 8 7 6 3 2 5 8 9 11 12 11 12 10 10 10 11 11 12 10 10 13 15 18 18 18 17 17 16 16 16 15 15 14 14 13 13 13 13 12 12 12 12 12 12 12 13 13 13 14 14 14 13 13 12 12 12 12 12 13 13 14 14 14 14 14 13 13 12
11 10 10 10 10 10 10 10 11 10 10 9 8 7 8 9 8 7 7 5 4 2 3 6 7 10 11 nan 8 8 8 10 10 12 11 10 10 12 13 14 17 17 17 16 16 15 15 15 15 15 14 14 14 14 14 14 14 14 14 14 14 14 14 15 15 15 15 15 14 14 14 14 13 13 13 13 14 14 14 14 14 15 14 13 12
11 11 11 11 10 11 11 11 11 10 9 9 8 8 7 7 7 6 6 5 5 5 4 5 7 9 10 nan 6 6 6 7 8 10 10 10 10 10 12 12 12 16 17 16 16 15 15 15 15 16 15 14 15 15 15 16 16 16 17 17 17 17 17 17 17 16 16 15 15 15 15 15 14 14 15 15 14 14 15 15 14 14 13 11 10
10 10 10 10 10 11 12 11 11 11 9 9 9 8 8 8 8 6 7 6 6 5 5 8 10 nan nan nan 5 4 4 5 6 7 8 9 9 9 10 10 9 11 12 15 15 15 15 15 15 15 15 15 15 16 16 17 17 18 18 18 18 18 18 17 17 17 16 16 15 15 16 16 16 15 16 16 15 12 11 12 15 14 13 10 11
10 10 9 9 10 11 12 12 11 11 11 11 10 9 9 11 9 8 7 7 7 5 5 5 9 nan nan 2 2 3 4 4 4 4 6 7 6 8 8 8 8 9 9 9 13 13 14 15 15 14 15 15 16 16 17 17 18 18 19 18 18 18 18 18 18 18 18 18 18 17 17 16 15 16 14 12 11 11 13 13 13 13 12 11 11
10 9 8 9 10 12 13 12 12 12 14 12 11 12 13 14 13 10 8 9 8 7 3 2 8 nan nan nan 1 2 2 3 4 4 4 4 4 6 6 6 6 6 9 8 9 10 14 15 16 16 15 16 16 17 18 19 20 19 20 20 20 20 20 20 20 20 20 20 19 19 17 15 14 14 11 12 11 12 12 11 11 12 11 10 11
9 9 8 8 10 12 13 13 13 14 14 14 14 15 15 16 17 16 12 12 9 8 4 nan nan nan nan nan 2 1 2 3 4 3 3 4 3 4 5 5 6 8 7 7 8 8 10 13 15 16 16 16 16 17 18 19 18 16 16 14 17 14 13 15 18 19 18 19 18 18 16 16 15 11 9 10 10 9 10 10 10 10 10 10 11
8 8 8 8 10 13 13 13 14 15 15 16 17 16 18 17 17 17 15 14 11 8 7 nan nan nan nan nan 3 2 3 4 4 3 2 3 4 4 5 5 6 6 7 7 8 9 9 12 15 16 16 16 16 16 17 16 15 12 11 16 16 17 19 20 19 20 18 16 16 14 14 14 11 11 10 10 9 10 9 10 10 10 11 11 12
8 7 7 8 11 12 13 14 13 15 16 17 15 16 17 17 17 18 15 15 11 10 nan nan nan nan nan nan nan nan nan nan 6 3 3 4 4 5 4 6 6 6 6 7 8 9 10 10 10 9 10 14 16 16 16 14 12 13 16 17 17 17 18 19 19 17 17 18 16 15 14 13 11 11 10 10 9 9 9 10 10 11 12 12 13
8 7 7 8 11 13 13 13 13 14 15 16 17 17 18 16 17 17 16 13 12 10 nan nan nan nan 6 nan nan nan nan 7 6 5 4 5 5 4 6 5 7 7 7 8 8 8 9 9 9 10 9 10 12 13 14 13 15 14 15 16 16 17 19 19 17 18 17 15 14 14 13 11 11 10 10 9 9 9 10 10 10 11 12 12 10
7 6 7 8 11 12 13 13 13 14 14 16 16 17 17 16 16 15 14 13 13 11 nan nan nan nan nan nan nan nan 9 8 9 7 7 7 6 6 5 6 8 8 8 8 8 8 8 8 8 8 8 8 8 10 11 12 12 13 14 15 16 18 18 19 20 19 18 16 16 15 14 13 11 11 10 9 9 10 10 9 9 11 10 10 11
6 7 7 8 10 12 13 14 14 14 14 14 14 14 14 13 13 12 12 13 12 12 nan nan nan nan nan nan nan nan 9 8 nan nan 8 8 8 7 7 7 9 9 8 7 8 7 7 7 7 8 8 8 7 6 6 7 8 8 10 13 14 15 16 16 16 16 17 17 17 16 14 12 11 9 9 9 8 8 9 9 10 10 11 13 14
7 7 7 9 11 13 15 14 13 12 11 12 12 13 13 13 12 12 12 11 11 11 nan nan nan nan nan nan nan nan nan 10 11 11 11 10 9 9 9 9 10 8 7 7 8 7 6 6 7 7 8 8 7 7 7 9 10 12 12 12 11 11 12 13 14 15 16 17 17 16 14 11 10 9 8 8 9 10 10 11 11 13 15 15 16
7 7 8 9 11 14 13 13 14 13 11 11 11 12 12 13 13 13 10 11 10 10 11 nan nan nan nan nan nan nan nan nan nan nan nan 11 10 11 9 10 9 7 6 8 8 7 6 5 6 7 8 8 8 7 8 8 10 12 13 13 13 11 11 12 14 16 18 19 19 19 16 12 10 9 9 10 10 11 12 13 14 15 nan 17 18
6 7 8 9 10 13 13 13 13 13 12 11 12 13 13 14 14 13 13 13 13 11 10 nan nan nan nan nan nan nan nan nan nan nan nan nan 11 10 10 9 8 7 7 8 6 6 6 6 6 7 8 9 8 8 7 7 8 8 9 12 13 14 13 14 16 17 18 19 20 20 19 17 15 14 13 13 13 14 15 16 17 17 18 18 19
5 6 8 8 10 12 12 12 12 13 13 13 12 11 12 13 15 14 15 15 13 12 12 10 nan 12 nan nan nan nan nan nan nan nan nan nan nan nan 10 9 7 7 8 7 8 8 7 8 6 8 8 8 8 7 8 8 9 10 10 9 13 14 15 15 16 18 18 20 21 22 22 22 21 19 17 16 17 17 18 18 18 19 nan nan nan
5 6 7 8 9 10 11 12 12 12 12 12 12 13 13 13 13 12 15 13 12 13 15 nan nan nan 14 nan nan 9 nan nan nan nan nan nan nan nan nan nan 9 nan 11 10 9 8 7 6 7 8 8 8 8 9 9 10 11 12 14 14 14 14 16 16 17 16 18 19 21 23 24 25 24 22 21 20 20 19 19 19 20 20 nan nan 22
5 6 7 8 9 10 10 11 11 11 11 12 13 12 11 11 11 12 11 11 13 14 16 14 nan nan 13 nan 11 9 nan nan nan nan nan nan nan nan nan nan nan nan nan 11 10 10 9 8 9 10 9 9 9 9 10 10 11 11 13 16 17 18 18 18 19 19 20 21 23 25 26 26 25 23 23 23 22 21 21 nan 22 22 23 23 23
4 6 7 8 8 9 10 10 10 10 10 10 10 10 11 11 11 11 11 11 12 12 11 15 15 nan nan nan nan nan nan nan nan nan nan nan nan nan nan nan nan nan nan nan nan nan 12 13 12 12 11 12 11 11 12 12 14 14 16 18 20 20 20 20 22 22 23 24 25 26 26 25 24 23 22 nan nan 22 23 23 23 23 23 23 23
4 5 6 7 8 8 9 11 11 9 8 8 8 8 9 10 11 11 11 11 10 11 13 13 15 nan nan nan nan nan nan nan nan nan nan nan nan nan nan nan nan nan nan nan nan nan 14 14 13 12 13 14 13 13 14 15 16 16 18 22 23 23 23 23 22 25 25 25 25 25 25 24 23 23 nan nan nan 22 22 21 21 22 22 22 23
2 4 6 6 7 8 10 11 10 9 8 7 8 9 9 9 10 9 10 11 11 11 11 11 12 14 nan nan nan nan nan nan nan nan nan nan nan nan nan nan nan nan nan nan nan nan nan 13 nan 14 15 15 15 15 16 17 17 18 21 22 22 23 24 24 24 26 26 25 25 25 25 25 25 nan nan nan 22 21 21 20 20 20 20 20 21
1 3 5 6 6 8 9 9 11 10 10 9 8 8 8 7 8 9 10 10 10 10 10 11 11 12 12 nan nan nan nan nan nan nan nan nan nan nan nan nan nan nan nan nan nan nan nan nan nan nan 16 15 16 16 16 17 17 22 21 22 23 24 24 25 26 26 27 26 25 25 26 26 26 25 25 24 23 23 22 21 20 19 19 19 19
1 3 6 7 6 8 9 10 11 11 11 11 10 10 9 8 8 8 8 9 10 11 11 11 12 12 12 12 nan nan nan nan nan nan nan nan nan nan nan nan nan nan nan nan nan nan nan nan nan nan nan nan nan 17 17 17 18 21 24 20 25 26 27 27 28 28 28 28 27 27 26 25 25 24 24 23 23 22 21 21 21 21 21 20 19
3 6 6 6 7 8 8 10 10 10 11 12 12 11 11 11 10 10 10 10 9 10 11 10 10 11 9 11 nan nan nan nan nan nan nan nan nan nan nan nan nan nan nan nan nan nan nan nan nan nan nan nan nan nan nan nan nan 22 26 23 23 27 28 29 30 30 31 31 31 30 30 29 28 27 27 26 26 26 26 25 24 23 22 22 21
4 6 5 7 8 6 7 7 7 8 8 9 10 10 11 11 11 13 12 11 12 12 11 11 11 11 10 11 nan nan nan nan nan nan nan nan nan nan nan nan nan nan nan nan nan nan nan nan nan nan nan nan nan nan nan nan nan 24 26 24 23 27 30 30 30 31 31 32 33 34 34 33 32 32 31 29 28 28 27 27 26 26 25 24 23
5 4 6 7 7 6 4 5 4 5 5 6 7 8 9 10 10 11 13 11 13 14 14 13 14 13 12 11 9 11 nan nan nan nan nan nan nan nan nan nan nan nan nan nan nan nan nan nan nan nan nan nan nan nan nan nan nan 26 27 23 nan nan 28 30 30 30 31 31 32 33 34 35 35 35 34 33 31 30 29 28 29 28 26 26 25
6 6 6 5 5 3 3 3 4 5 5 6 7 7 8 8 9 9 10 10 12 14 14 15 14 14 12 12 13 11 11 nan nan nan nan nan nan nan nan nan nan nan nan nan nan nan nan nan nan nan nan nan nan nan nan nan nan 25 nan 23 nan nan nan 29 30 30 30 31 nan nan nan nan 34 36 36 35 34 33 32 31 31 30 29 28 27
5 5 4 2 1 1 2 3 5 7 7 8 8 8 8 8 8 8 8 9 10 10 11 12 13 12 12 11 11 11 11 11 nan nan nan nan nan nan nan nan nan nan nan nan nan nan nan nan nan nan nan nan nan nan nan nan 26 27 nan nan nan nan nan nan nan nan nan nan nan nan nan nan nan nan nan 36 37 37 37 36 34 32 30 29 28
6 5 4 3 3 3 5 5 7 8 8 8 9 9 9 8 8 7 8 9 9 9 10 10 10 11 11 12 11 11 11 12 11 nan nan nan nan nan nan nan nan nan nan nan nan nan nan nan nan nan nan nan nan nan nan nan 25 27 25 24 25 nan nan nan nan nan nan nan nan nan nan nan nan nan nan nan 37 38 40 39 37 34 32 30 28
6 5 5 5 5 5 6 6 7 7 8 8 8 9 9 8 8 8 8 9 9 9 9 10 9 10 10 11 11 12 11 11 10 10 10 10 nan nan nan nan nan nan nan nan nan nan nan nan nan nan nan nan nan nan nan nan nan 29 26 26 27 28 28 nan nan nan nan nan nan nan nan nan nan nan nan nan nan 39 41 40 38 37 35 32 30
8 7 6 6 5 5 5 6 6 6 7 8 8 9 9 8 8 8 8 9 9 8 8 9 9 10 10 10 11 11 11 11 10 9 8 8 9 10 nan nan 12 14 16 nan nan nan nan nan nan nan nan nan nan nan nan nan nan 24 26 26 27 28 29 nan nan nan nan nan nan nan nan nan nan nan nan nan nan nan 41 41 39 38 nan nan nan
9 6 5 5 5 4 4 5 5 6 6 7 9 9 9 8 8 7 7 8 7 7 8 8 10 10 10 10 10 10 11 11 10 9 9 8 8 9 10 12 12 13 15 nan nan nan nan nan nan nan nan nan nan nan nan nan nan nan nan 27 27 29 29 nan nan nan nan nan nan nan nan nan nan nan nan nan nan nan nan nan nan nan nan nan nan
9 7 6 5 5 5 4 5 5 5 6 7 8 9 9 9 8 7 7 7 7 6 7 8 9 10 10 10 10 10 9 9 9 9 9 9 9 9 9 11 11 12 14 16 16 nan nan nan nan nan nan nan nan nan nan nan nan nan nan 27 28 28 29 nan nan nan nan nan nan nan nan nan nan nan nan nan nan nan nan nan nan nan nan nan nan
8 7 7 6 6 5 4 4 5 5 6 6 7 8 8 8 7 6 6 6 6 6 6 7 8 10 10 9 9 9 9 10 10 10 9 9 10 10 10 11 12 12 13 15 17 17 nan nan nan nan nan nan nan nan nan nan nan nan nan nan 25 26 28 30 nan nan nan nan nan nan nan nan nan nan nan nan nan nan nan nan nan nan nan nan nan
7 8 8 8 6 5 4 4 5 6 6 7 7 6 6 5 5 5 6 6 6 6 6 6 6 7 7 8 8 7 7 9 9 10 10 11 11 12 12 12 14 14 14 16 18 nan nan nan nan nan nan nan nan nan nan nan nan nan nan nan nan nan nan nan nan nan nan nan nan nan nan nan nan nan nan nan nan nan nan nan nan nan nan nan nan
7 7 7 7 6 4 4 3 4 4 5 6 6 6 5 4 4 4 4 4 4 4 4 4 3 4 5 6 7 6 6 9 10 10 9 11 11 12 12 13 14 15 17 18 nan nan nan nan nan nan nan 19 18 20 nan nan nan nan nan nan nan nan nan nan nan nan nan nan nan nan nan nan nan nan nan nan nan nan nan nan nan nan nan nan nan
7 7 6 5 5 4 3 3 3 3 4 5 5 4 4 3 2 1 1 0 1 1 2 3 4 4 6 7 7 7 9 11 11 11 9 9 10 12 14 15 16 17 18 19 20 nan nan 19 18 19 18 20 21 19 21 26 25 nan nan nan nan nan nan nan nan nan nan nan nan nan nan nan nan nan nan nan nan nan nan nan nan nan nan nan nan
7 6 5 4 4 4 2 2 2 3 4 4 2 1 1 1 1 3 4 5 6 6 6 6 6 7 8 9 10 10 12 12 12 10 9 10 9 10 12 13 16 18 19 19 20 21 nan 20 20 18 20 21 21 21 23 26 25 nan nan nan nan nan nan nan nan nan nan nan nan nan nan nan nan nan nan nan nan nan nan nan nan nan nan nan nan
9 7 6 5 4 4 3 2 2 3 3 1 1 1 2 4 5 7 8 8 8 8 9 8 7 7 8 9 10 11 12 14 15 13 12 11 10 11 11 14 16 19 20 20 22 23 23 22 20 20 20 21 23 25 26 28 31 nan nan nan nan nan nan nan nan nan nan nan nan nan nan nan nan nan nan nan nan nan nan nan nan nan nan nan nan
9 8 7 5 4 4 3 3 3 3 1 2 3 6 5 6 7 8 9 9 9 9 9 8 7 6 8 8 9 14 15 15 15 16 17 17 18 16 14 18 20 21 22 22 24 24 24 24 23 24 24 22 23 27 27 29 nan nan nan nan nan nan nan nan nan nan nan nan nan nan nan nan nan nan nan nan nan nan nan nan nan nan nan nan nan
9 8 7 5 4 5 3 2 2 2 2 4 6 6 7 9 7 8 8 8 8 8 7 6 6 6 6 8 8 10 11 12 14 17 18 20 20 20 22 24 26 27 25 25 25 27 26 25 24 26 26 23 23 27 29 29 32 35 nan nan nan nan nan nan nan nan 40 nan nan nan nan 36 nan nan 40 41 nan nan nan nan nan nan nan nan nan
9 9 6 5 5 5 5 2 1 2 3 5 6 6 6 7 6 7 8 8 7 7 6 5 5 4 5 5 6 6 8 11 13 14 17 19 21 22 24 26 28 30 31 30 28 28 29 27 26 28 28 27 26 29 30 32 33 35 37 38 38 37 36 nan nan nan nan nan nan nan nan nan 39 nan nan 41 nan nan nan nan nan nan nan nan nan
11 8 6 7 6 5 4 2 2 3 6 5 6 6 5 4 5 5 8 7 6 6 5 4 3 3 3 3 4 6 8 14 15 15 17 19 22 24 24 25 26 27 28 30 32 31 31 31 30 28 31 30 30 31 34 35 36 35 37 39 40 40 38 37 35 33 nan nan nan nan nan nan nan nan nan nan nan nan nan nan nan nan nan nan nan
9 8 8 7 7 6 5 4 4 6 7 7 5 4 4 3 2 2 7 7 6 5 4 2 2 1 2 3 4 6 9 12 14 16 18 20 21 23 23 22 22 23 26 28 29 30 31 33 32 30 31 37 35 34 36 42 42 39 40 41 44 43 41 41 41 38 39 47 46 nan nan nan nan nan nan nan nan nan nan nan nan nan nan nan nan
8 9 10 9 9 8 7 7 7 7 8 6 6 4 4 2 2 4 7 7 7 5 4 3 1 1 2 3 5 6 8 11 15 18 19 21 23 22 23 23 23 23 26 28 30 32 35 36 35 33 31 36 39 38 40 47 48 46 47 46 48 47 43 38 37 41 43 46 50 49 nan nan nan nan nan nan nan nan nan nan nan nan nan nan nan
11 12 12 12 11 10 9 9 8 6 8 6 6 6 5 5 7 9 8 7 6 6 4 3 3 4 4 4 4 5 7 11 16 22 23 24 24 23 22 21 22 25 27 31 33 36 38 39 38 37 36 38 42 43 45 49 50 50 48 46 45 46 44 43 43 47 46 51 55 55 46 42 51 nan nan nan nan nan nan nan nan nan nan nan nan
12 12 12 13 14 13 11 10 8 7 9 8 8 8 8 10 14 13 10 9 8 6 4 5 5 5 5 5 7 8 9 12 17 23 25 28 25 25 24 22 23 25 27 33 39 39 40 41 42 43 42 40 42 43 45 50 53 54 53 50 48 50 50 49 49 53 54 58 52 57 58 51 57 59 nan nan nan nan nan nan nan nan nan nan nan
11 12 15 16 16 15 12 10 9 9 11 12 11 11 12 14 16 14 13 11 7 5 6 7 8 8 5 5 8 10 11 14 19 23 27 32 28 28 28 24 23 25 26 33 35 36 41 43 45 46 44 42 42 43 43 47 51 55 56 53 49 54 54 55 53 59 62 57 51 58 59 54 57 61 58 nan nan nan nan nan nan nan nan nan nan
12 15 18 17 16 16 14 12 10 10 13 15 14 13 14 17 17 16 15 13 8 6 8 9 10 9 7 7 10 12 13 15 19 24 30 36 32 33 34 29 24 24 27 33 36 36 41 43 41 42 40 40 41 44 44 45 49 52 53 51 48 54 55 54 55 61 56 48 49 62 60 55 57 60 65 65 nan nan nan nan nan nan nan nan nan
Wind_Direction
85 80 76 74 74 71 64 63 62 58 55 58 55 59 66 74 77 81 84 89 92 109 111 114 106 98 90 83 74 69 64 63 63 69 72 67 74 77 64 69 71 68 68 64 62 60 60 58 54 50 50 51 51 55 57 58 58 58 55 50 47 48 46 46 46 45 43 46 43 44 43 42 42 43 47 51 53 55 56 55 53 52 50 49 51
80 82 71 70 69 68 66 66 61 63 60 54 55 49 57 69 78 84 93 103 127 111 120 128 126 115 102 86 78 69 60 60 61 67 70 69 70 81 62 69 73 74 71 69 62 61 59 60 57 55 55 55 56 56 58 59 60 59 58 53 50 47 46 44 45 43 41 41 43 43 43 42 43 42 45 51 54 54 55 55 55 54 53 54 54
76 72 76 70 65 63 66 66 67 63 62 64 58 59 64 64 66 75 88 102 123 133 125 127 116 108 104 87 76 72 65 64 64 66 67 69 74 85 81 63 70 71 72 69 66 63 61 62 62 59 58 58 59 59 59 58 56 56 53 53 49 47 46 44 45 44 43 42 43 45 46 48 48 49 52 54 56 59 60 63 63 63 61 61 61
69 65 62 60 55 55 61 59 63 65 62 63 60 62 63 70 78 81 81 94 115 161 115 109 105 108 108 nan 86 77 71 66 65 65 70 74 77 85 94 84 69 69 71 69 68 66 65 63 66 66 62 59 59 58 57 56 54 53 50 48 47 45 43 44 44 45 45 45 44 46 48 51 52 57 60 63 67 69 70 71 71 70 69 65 64
63 55 53 50 44 44 50 52 59 63 63 61 58 63 69 78 88 93 110 114 127 147 149 122 121 109 111 nan 98 91 88 78 72 71 74 77 78 87 94 96 94 72 67 69 67 66 66 64 64 66 67 63 60 57 54 51 51 48 47 44 42 41 39 39 41 42 44 45 45 48 50 52 54 56 60 63 67 69 71 70 71 74 72 72 74
52 54 51 44 42 41 42 47 58 65 65 64 64 71 75 82 88 110 121 128 133 137 140 138 125 nan nan nan 102 92 87 89 82 81 81 79 81 91 91 98 95 94 84 65 64 64 64 64 63 64 66 67 63 60 56 52 49 47 46 44 42 41 40 39 40 41 42 44 45 46 50 52 54 57 59 59 64 73 84 84 76 68 66 62 63
49 44 45 39 40 40 44 52 62 72 70 68 69 80 82 84 85 94 119 133 138 126 98 121 118 nan nan 101 83 109 117 103 102 95 87 87 90 93 91 92 91 85 82 81 64 60 60 61 62 63 61 61 62 61 59 55 52 49 46 44 43 42 41 39 38 38 38 37 39 41 44 49 55 55 57 67 67 62 64 65 71 71 66 61 59
46 43 38 39 39 40 48 61 71 76 76 76 77 75 78 83 84 80 96 111 119 118 145 107 98 nan nan nan 146 145 130 111 115 114 105 98 93 92 87 85 80 80 66 68 66 64 54 53 56 57 57 56 56 56 55 54 52 52 46 43 40 39 38 36 36 37 36 34 34 36 38 38 43 53 47 51 50 56 62 68 66 68 64 60 59
47 43 37 36 40 47 55 65 75 75 79 78 73 71 70 74 81 78 76 91 100 108 124 nan nan nan nan nan 115 132 112 131 122 121 124 104 102 92 84 75 66 56 59 55 58 59 62 54 54 54 54 56 57 54 53 52 50 44 50 66 68 63 59 58 49 44 42 36 36 37 38 36 34 41 50 58 54 59 61 59 63 63 60 59 57
50 47 42 38 40 48 60 72 80 83 85 82 76 76 74 71 73 78 72 78 89 104 98 nan nan nan nan nan 70 92 114 124 123 132 132 107 104 87 71 60 55 54 46 49 52 55 59 60 55 54 52 53 53 55 55 54 56 58 66 49 44 42 44 47 46 43 42 49 44 42 42 37 28 19 25 49 52 56 60 58 60 61 61 57 53
48 48 42 43 44 51 63 76 82 83 85 85 82 79 80 76 71 77 79 78 78 78 nan nan nan nan nan nan nan nan nan nan 124 161 104 104 99 94 88 73 69 68 64 61 61 60 61 63 60 56 55 53 51 50 54 54 56 42 38 44 47 45 46 43 45 41 37 36 33 27 30 36 30 34 36 44 55 58 61 60 60 60 57 53 49
51 51 46 47 51 55 65 77 83 83 82 83 82 77 74 75 77 77 83 88 94 85 nan nan nan nan 97 nan nan nan nan 110 112 105 106 100 100 98 85 95 81 82 80 78 75 73 68 67 62 51 46 49 50 50 50 46 40 45 44 44 46 46 42 40 40 44 35 36 29 26 31 34 37 40 45 44 54 54 54 56 56 54 51 47 36
60 56 53 53 56 61 66 75 81 81 78 75 75 74 74 72 72 80 78 84 90 95 nan nan nan nan nan nan nan nan 109 106 93 89 83 88 92 89 97 98 94 90 89 87 86 84 80 77 71 60 51 42 51 55 55 56 54 47 47 46 48 43 43 39 36 39 36 31 32 31 30 31 33 37 46 42 40 38 42 43 42 41 37 15 6
66 63 60 52 56 62 64 67 73 77 79 80 77 77 74 73 71 80 87 76 79 85 nan nan nan nan nan nan nan nan 102 98 nan nan 89 82 79 83 83 79 80 87 94 90 87 82 78 70 69 61 53 43 39 41 46 47 48 49 44 48 47 45 42 42 38 37 37 34 31 32 34 33 33 40 40 35 26 24 26 27 26 18 6 11 9
68 59 54 56 57 60 64 67 71 77 80 79 79 77 70 64 65 65 78 83 80 80 nan nan nan nan nan nan nan nan nan 99 93 88 82 82 81 78 73 72 73 75 78 80 77 73 73 68 64 58 48 37 31 28 31 34 33 45 42 36 36 44 42 40 37 35 35 33 31 29 30 32 33 33 27 17 14 12 14 11 2 4 8 5 5
69 62 59 55 56 61 64 64 66 73 70 70 75 74 73 72 71 74 74 76 83 78 72 nan nan nan nan nan nan nan nan nan nan nan nan 69 71 74 70 68 71 71 70 70 72 71 71 59 58 50 36 25 22 23 27 29 42 51 52 41 22 19 31 38 35 30 31 31 29 24 21 16 14 14 8 4 4 2 358 357 357 2 nan 4 1
76 66 62 55 59 63 62 63 62 66 66 65 64 63 67 72 72 73 73 71 75 81 84 nan nan nan nan nan nan nan nan nan nan nan nan nan 77 74 75 67 63 62 57 66 71 66 58 53 54 40 24 16 16 19 22 27 32 31 35 42 32 10 22 31 29 26 26 27 25 19 15 10 5 359 357 355 353 350 351 353 355 357 358 358 359
87 73 67 64 57 60 63 60 60 59 58 59 60 64 64 69 73 70 74 79 73 76 84 79 nan 69 nan nan nan nan nan nan nan nan nan nan nan nan 63 60 55 53 54 53 51 53 46 47 31 23 15 15 18 19 20 22 24 25 23 26 36 11 14 21 28 23 24 20 19 14 11 11 6 360 356 350 347 348 349 350 351 352 nan nan nan
92 77 68 63 59 57 57 57 55 53 56 54 54 54 56 62 69 68 69 70 74 70 69 nan nan nan 74 nan nan 79 nan nan nan nan nan nan nan nan nan nan 50 nan 41 42 41 36 39 25 16 14 18 21 23 25 23 20 24 22 25 24 24 20 11 15 17 27 19 16 11 4 5 5 3 2 356 352 349 348 347 347 349 350 nan nan 354
88 74 61 58 55 53 53 54 52 49 46 49 51 54 53 64 62 63 64 61 58 58 63 63 nan nan 69 nan 77 78 nan nan nan nan nan nan nan nan nan nan nan nan nan 43 33 28 24 25 27 26 28 28 23 21 21 15 12 13 14 21 17 16 9 7 10 14 11 7 3 360 360 359 359 0 359 358 355 350 347 nan 348 348 349 350 352
81 66 57 50 49 48 46 47 48 46 44 47 52 47 46 49 55 54 53 55 50 56 52 53 54 nan nan nan nan nan nan nan nan nan nan nan nan nan nan nan nan nan nan nan nan nan 29 31 34 31 27 28 20 14 15 13 11 6 12 18 15 13 7 2 2 3 5 6 3 0 360 359 359 0 3 nan nan 355 351 349 348 348 348 350 353
69 69 59 51 45 41 41 41 42 41 40 44 48 48 46 47 48 47 44 47 46 43 46 48 45 nan nan nan nan nan nan nan nan nan nan nan nan nan nan nan nan nan nan nan nan nan 35 32 33 31 27 25 17 12 12 15 13 9 14 19 17 14 10 5 2 6 7 6 5 4 2 2 3 5 nan nan nan 359 356 352 350 350 351 352 354
53 70 60 51 45 40 38 39 39 37 35 33 39 42 41 40 43 45 44 40 40 40 47 44 43 43 nan nan nan nan nan nan nan nan nan nan nan nan nan nan nan nan nan nan nan nan nan 28 nan 30 27 25 20 16 19 21 19 18 20 20 18 14 11 9 6 10 11 8 10 10 10 10 11 nan nan nan 6 5 3 360 357 353 352 352 354
92 87 71 60 49 45 44 41 39 38 36 32 33 35 35 33 36 37 44 43 37 33 37 38 35 37 38 nan nan nan nan nan nan nan nan nan nan nan nan nan nan nan nan nan nan nan nan nan nan nan 28 25 22 19 22 23 24 27 21 20 20 19 17 14 12 12 15 14 13 17 19 19 18 16 14 13 12 10 8 3 359 355 352 349 349
103 66 71 56 53 52 50 47 47 43 41 38 37 31 30 25 28 33 38 40 35 30 31 34 27 25 30 30 nan nan nan nan nan nan nan nan nan nan nan nan nan nan nan nan nan nan nan nan nan nan nan nan nan 22 22 23 23 25 24 18 22 21 21 20 18 18 20 21 19 21 23 22 21 18 14 10 7 360 357 357 356 354 354 354 353
50 61 62 59 68 63 57 55 51 44 40 41 41 37 34 32 29 33 37 40 34 31 34 33 27 31 19 16 nan nan nan nan nan nan nan nan nan nan nan nan nan nan nan nan nan nan nan nan nan nan nan nan nan nan nan nan nan 26 25 18 21 24 24 24 24 24 25 25 23 23 24 23 20 18 15 12 5 4 1 359 360 360 359 356 352
77 81 91 78 78 77 66 57 49 40 33 32 36 33 34 34 34 38 42 41 39 34 35 30 29 26 19 17 nan nan nan nan nan nan nan nan nan nan nan nan nan nan nan nan nan nan nan nan nan nan nan nan nan nan nan nan nan 22 24 18 17 24 26 27 28 28 28 27 25 23 23 22 19 18 15 11 7 5 1 359 360 360 357 354 351
119 124 98 90 87 80 69 49 27 19 8 6 10 12 14 19 27 28 37 36 40 38 39 33 34 26 21 13 4 18 nan nan nan nan nan nan nan nan nan nan nan nan nan nan nan nan nan nan nan nan nan nan nan nan nan nan nan 21 22 16 nan nan 25 26 27 27 27 26 25 24 22 20 19 17 15 10 5 3 0 357 356 355 355 353 351
135 125 112 106 95 78 48 22 349 341 337 336 341 347 346 354 4 10 21 19 26 33 33 32 34 27 21 13 12 10 9 nan nan nan nan nan nan nan nan nan nan nan nan nan nan nan nan nan nan nan nan nan nan nan nan nan nan 15 nan 13 nan nan nan 23 24 24 24 24 nan nan nan nan 20 19 17 13 7 3 0 358 353 350 350 350 348
156 148 146 137 142 348 311 319 322 318 327 325 326 333 332 338 347 354 357 350 6 17 21 23 26 18 17 14 8 11 6 357 nan nan nan nan nan nan nan nan nan nan nan nan nan nan nan nan nan nan nan nan nan nan nan nan 18 14 nan nan nan nan nan nan nan nan nan nan nan nan nan nan nan nan nan 14 11 7 4 2 357 351 349 348 347
183 192 206 220 252 280 293 303 306 316 317 326 325 327 329 337 337 344 338 336 349 3 6 5 13 3 9 12 6 13 6 5 3 nan nan nan nan nan nan nan nan nan nan nan nan nan nan nan nan nan nan nan nan nan nan nan 13 11 10 8 9 nan nan nan nan nan nan nan nan nan nan nan nan nan nan nan 11 8 6 2 359 356 352 348 346
196 216 234 250 269 290 294 302 307 308 314 326 325 326 325 336 337 338 339 335 347 359 357 350 353 355 359 5 4 9 7 3 7 0 356 349 nan nan nan nan nan nan nan nan nan nan nan nan nan nan nan nan nan nan nan nan nan 6 4 3 4 3 2 nan nan nan nan nan nan nan nan nan nan nan nan nan nan 8 6 2 360 356 354 350 345
219 230 247 261 274 288 295 297 308 311 317 321 316 317 322 335 338 339 334 337 350 356 345 348 345 345 352 360 4 6 355 1 9 7 356 346 334 343 nan nan 354 351 350 nan nan nan nan nan nan nan nan nan nan nan nan nan nan 356 357 358 356 354 354 nan nan nan nan nan nan nan nan nan nan nan nan nan nan nan 5 5 2 357 nan nan nan
232 240 252 254 256 271 280 297 305 312 315 319 314 315 327 335 343 329 334 338 349 353 335 347 343 340 340 349 2 3 352 2 1 6 6 353 341 345 348 347 354 354 350 nan nan nan nan nan nan nan nan nan nan nan nan nan nan nan nan 353 350 350 351 nan nan nan nan nan nan nan nan nan nan nan nan nan nan nan nan nan nan nan nan nan nan
228 237 246 248 251 263 277 291 302 308 316 316 314 320 330 337 343 338 331 333 341 345 342 350 343 331 334 345 1 358 344 354 4 9 358 359 347 352 0 348 358 359 352 354 354 nan nan nan nan nan nan nan nan nan nan nan nan nan nan 349 350 348 348 nan nan nan nan nan nan nan nan nan nan nan nan nan nan nan nan nan nan nan nan nan nan
228 230 238 242 245 260 278 289 298 306 311 315 318 325 334 333 336 337 324 321 326 336 346 345 336 329 341 348 7 1 349 355 6 11 10 356 355 358 358 354 356 6 359 353 1 9 nan nan nan nan nan nan nan nan nan nan nan nan nan nan 343 348 347 346 nan nan nan nan nan nan nan nan nan nan nan nan nan nan nan nan nan nan nan nan nan
222 232 232 238 246 258 275 297 304 311 323 320 319 320 318 316 323 316 309 310 322 337 343 344 330 335 340 358 19 5 351 0 9 13 12 8 6 1 1 358 359 4 359 358 5 nan nan nan nan nan nan nan nan nan nan nan nan nan nan nan nan nan nan nan nan nan nan nan nan nan nan nan nan nan nan nan nan nan nan nan nan nan nan nan nan
226 232 237 241 252 267 281 299 303 316 313 306 312 320 325 318 305 299 298 305 320 331 346 357 359 355 8 24 33 19 13 19 30 26 16 14 6 3 2 3 7 4 6 4 nan nan nan nan nan nan nan 351 349 347 nan nan nan nan nan nan nan nan nan nan nan nan nan nan nan nan nan nan nan nan nan nan nan nan nan nan nan nan nan nan nan
232 232 236 248 253 268 295 293 296 300 290 289 302 314 319 319 322 315 320 1 26 31 61 63 65 62 60 62 60 48 45 44 46 42 30 21 14 14 6 6 6 5 8 5 359 nan nan 6 4 357 354 345 344 349 332 330 335 nan nan nan nan nan nan nan nan nan nan nan nan nan nan nan nan nan nan nan nan nan nan nan nan nan nan nan nan
227 232 241 253 256 263 284 281 287 274 270 274 300 307 293 358 101 112 111 111 107 108 108 102 94 85 78 74 69 61 57 56 50 48 29 29 14 18 8 1 2 2 4 360 353 352 nan 356 359 357 344 344 333 331 317 317 325 nan nan nan nan nan nan nan nan nan nan nan nan nan nan nan nan nan nan nan nan nan nan nan nan nan nan nan nan
217 224 232 241 253 261 252 251 260 268 274 312 193 169 133 111 118 116 116 116 114 115 113 108 105 93 85 75 66 59 51 49 43 37 26 13 1 7 2 352 1 358 359 354 350 345 346 349 352 341 342 340 335 327 328 328 333 nan nan nan nan nan nan nan nan nan nan nan nan nan nan nan nan nan nan nan nan nan nan nan nan nan nan nan nan
216 224 230 235 243 252 252 261 272 260 230 173 107 64 81 122 125 129 134 128 123 122 120 117 110 92 80 71 63 50 41 36 30 26 22 14 9 2 355 346 358 356 356 355 349 342 342 346 348 344 344 348 338 329 334 336 nan nan nan nan nan nan nan nan nan nan nan nan nan nan nan nan nan nan nan nan nan nan nan nan nan nan nan nan nan
217 226 233 237 240 246 260 271 293 270 188 162 90 88 85 82 116 135 132 131 136 131 128 123 112 96 82 65 60 48 35 26 20 20 15 11 8 8 10 7 360 354 351 351 349 341 340 345 346 341 344 349 340 332 336 336 328 333 nan nan nan nan nan nan nan nan 323 nan nan nan nan 328 nan nan 330 330 nan nan nan nan nan nan nan nan nan
219 226 232 238 242 250 250 252 252 223 187 137 108 107 98 88 95 128 145 148 148 144 144 131 124 107 79 64 50 33 20 12 2 0 3 4 2 2 5 9 10 2 354 350 346 339 337 341 344 345 343 345 343 335 334 328 330 330 329 326 324 325 328 nan nan nan nan nan nan nan nan nan 322 nan nan 327 nan nan nan nan nan nan nan nan nan
222 227 231 241 246 255 258 255 207 200 191 153 132 124 126 110 87 112 153 160 163 160 162 146 121 96 76 56 45 20 6 8 357 350 343 340 345 356 360 5 9 3 357 358 354 344 333 335 342 347 340 339 341 340 332 328 322 323 320 321 322 323 329 333 336 333 nan nan nan nan nan nan nan nan nan nan nan nan nan nan nan nan nan nan nan
225 227 236 245 250 257 256 245 225 215 202 176 168 162 162 155 129 166 162 161 165 166 164 160 169 80 28 17 22 17 355 341 336 335 332 332 326 326 332 337 344 351 350 354 349 344 338 335 336 343 339 330 338 336 328 322 322 323 321 324 324 327 330 335 337 333 310 312 317 nan nan nan nan nan nan nan nan nan nan nan nan nan nan nan nan
234 237 242 245 249 253 248 244 237 223 209 189 205 211 205 213 219 231 187 180 170 162 167 190 220 289 310 332 4 11 347 329 321 324 323 321 318 320 323 326 332 334 333 332 326 325 330 330 333 340 339 330 332 334 327 323 328 328 327 330 331 332 331 325 319 316 313 315 312 310 nan nan nan nan nan nan nan nan nan nan nan nan nan nan nan
234 237 240 243 249 252 249 250 249 227 215 220 231 238 250 249 258 229 210 193 180 171 174 208 233 249 272 311 324 329 323 319 320 329 324 312 310 314 317 319 324 329 333 327 326 331 332 328 330 336 334 333 333 334 332 328 328 328 325 324 324 324 325 325 329 318 316 309 312 313 316 316 310 nan nan nan nan nan nan nan nan nan nan nan nan
241 244 245 245 243 246 250 253 251 230 222 229 244 253 261 269 254 230 222 211 200 184 187 223 236 243 259 286 297 297 307 309 315 322 321 315 309 310 309 318 328 336 336 317 325 338 336 335 343 346 345 343 341 340 338 336 332 327 321 325 332 325 323 327 329 321 310 304 315 317 315 315 310 309 nan nan nan nan nan nan nan nan nan nan nan
245 241 240 239 243 248 253 252 249 234 226 233 252 254 265 274 270 247 234 229 211 204 210 229 239 244 263 340 319 305 306 305 312 317 313 310 311 313 314 322 337 342 336 319 315 322 330 337 344 346 344 344 343 342 341 336 332 327 324 332 335 320 322 325 326 315 306 315 325 320 312 315 308 306 307 nan nan nan nan nan nan nan nan nan nan
242 237 235 234 238 243 250 252 257 249 231 236 258 261 268 274 271 248 245 238 227 227 236 235 247 254 265 291 324 318 309 306 312 311 314 313 316 316 317 322 338 350 341 322 317 318 315 320 327 328 331 337 334 329 329 334 335 329 325 330 325 317 319 322 320 314 317 328 331 318 313 311 309 307 306 298 nan nan nan nan nan nan nan nan nan